This demonstration page uses our WeatherBlox Daily Observations layout. Learn more.

Left ArrowRight Arrow

53.62937, 11.41316

Hourly Observations for January 20, 2018

Temp ( °F °C ) Dew Point ( °F °C ) Humidity (%) Winds ( mph kmh ) Pressure ( in mb ) Visibility ( mi km ) Precip ( " mm )
6:50 am 06:50 Mostly Cloudy 34 1 34 1 100 100 SW 9 15 29.68 1005 4 6 N/A
7:20 am 07:20 Mostly Cloudy 34 1 34 1 100 100 S 3 6 29.68 1005 3 5 N/A
7:50 am 07:50 Mostly Cloudy 34 1 34 1 100 100 SW 7 11 29.68 1005 6 9 N/A
8:20 am 08:20 Mostly Cloudy 34 1 34 1 100 100 SSW 6 9 29.68 1005 5 8 N/A
8:50 am 08:50 Mostly Cloudy 34 1 34 1 100 100 SW 7 11 29.68 1005 4 7 N/A
9:20 am 09:20 Mostly Cloudy 34 1 34 1 100 100 SSW 5 7 29.68 1005 4 6 N/A
9:50 am 09:50 Mostly Cloudy 34 1 34 1 100 100 SSW 6 9 29.68 1005 3 5 N/A
10:20 am 10:20 Mostly Cloudy 34 1 34 1 100 100 SSW 7 11 29.68 1005 3 5 N/A
10:50 am 10:50 Mostly Cloudy 34 1 34 1 100 100 SSW 6 9 29.68 1005 4 6 N/A
11:20 am 11:20 Mostly Cloudy 34 1 34 1 100 100 SSW 6 9 29.68 1005 4 7 N/A
11:50 am 11:50 Mostly Cloudy 34 1 34 1 100 100 SSW 7 11 29.68 1005 4 6 N/A
12:20 pm 12:20 Mostly Cloudy 36 2 34 1 93 93 SSW 6 9 29.65 1004 4 6 N/A
12:50 pm 12:50 Mostly Cloudy 36 2 34 1 93 93 SSW 6 9 29.65 1004 6 9 N/A
1:20 pm 13:20 Mostly Cloudy 36 2 34 1 93 93 SSW 6 9 29.62 1003 5 8 N/A
1:50 pm 13:50 Mostly Cloudy 36 2 34 1 93 93 SSW 5 7 29.62 1003 5 8 N/A
2:20 pm 14:20 Mostly Cloudy 36 2 34 1 93 93 SW 5 7 29.62 1003 5 8 N/A
2:50 pm 14:50 Mostly Cloudy 36 2 34 1 93 93 S 3 6 29.62 1003 6 9 N/A
3:20 pm 15:20 Mostly Cloudy 36 2 34 1 93 93 S 3 6 29.59 1002 6 9 N/A
3:50 pm 15:50 Mostly Cloudy 36 2 34 1 93 93 SSE 3 6 29.59 1002 30 48 N/A
4:20 pm 16:20 Mostly Cloudy 36 2 34 1 93 93 VRB 2 4 29.59 1002 30 48 N/A
4:50 pm 16:50 Mostly Cloudy 36 2 34 1 93 93 VRB 1 2 29.59 1002 30 48 N/A
5:20 pm 17:20 Mostly Cloudy 36 2 34 1 93 93 E 3 6 29.59 1002 30 48 N/A
5:50 pm 17:50 Mostly Cloudy 36 2 34 1 93 93 SE 3 6 29.59 1002 30 48 N/A
6:20 pm 18:20 Mostly Cloudy 36 2 34 1 93 93 ESE 5 7 29.59 1002 30 48 N/A

Powered by AerisWeather